• Em Portugal
  • Lista de países
  • Para 7 dias
  • Temperatura da água
  • Mapas de satélite
  • Mapa do tempo
  • Widgets de tempo
  • user-avatar
    Iniciar Sessão

    Previsão horária em Mandalay

    Hoje, 20 Setembro, Quinta-feira

    Tempo Temperatura Precipitação Vento Pressão Humidade
    00:00 +28°C° 1.2 mm 2 m/s 750 mmHg 90%
    01:00 +28°C° 0.9 mm 2 m/s 750 mmHg 90%
    02:00 +27°C° 0.9 mm 2 m/s 750 mmHg 90%
    03:00 +27°C° 0.9 mm 2 m/s 750 mmHg 91%
    04:00 +27°C° 0.7 mm 1 m/s 750 mmHg 91%
    05:00 +27°C° 0.7 mm 1 m/s 751 mmHg 91%
    06:00 +27°C° 0.7 mm 1 m/s 751 mmHg 91%
    07:00 +28°C° 0.3 mm 1 m/s 751 mmHg 88%
    08:00 +29°C° 0.3 mm 1 m/s 752 mmHg 84%
    09:00 +30°C° 0.3 mm 1 m/s 752 mmHg 81%
    10:00 +31°C° 0.5 mm 1 m/s 752 mmHg 77%
    11:00 +32°C° 0.5 mm 1 m/s 751 mmHg 73%
    12:00 +33°C° 0.5 mm 1 m/s 751 mmHg 70%
    13:00 +33°C° 0.6 mm 1 m/s 750 mmHg 69%
    14:00 +33°C° 0.6 mm 1 m/s 750 mmHg 69%
    15:00 +33°C° 0.6 mm 1 m/s 749 mmHg 69%
    16:00 +32°C° 0.7 mm 1 m/s 749 mmHg 72%
    17:00 +31°C° 0.7 mm 1 m/s 749 mmHg 75%
    18:00 +28°C° 0.7 mm 0 m/s 750 mmHg 78%
    19:00 +28°C° 1 mm 0 m/s 750 mmHg 80%
    20:00 +29°C° 1 mm 1 m/s 751 mmHg 82%
    21:00 +29°C° 1 mm 1 m/s 752 mmHg 83%
    22:00 +29°C° 1 mm 1 m/s 752 mmHg 85%
    23:00 +28°C° 1 mm 1 m/s 752 mmHg 86%

    Amanhã, 21 Setembro, Sexta-feira

    Tempo Temperatura Precipitação Vento Pressão Humidade
    00:00 +28°C° 1 mm 1 m/s 752 mmHg 87%
    01:00 +28°C° 0.3 mm 1 m/s 751 mmHg 88%
    02:00 +27°C° 0.3 mm 1 m/s 751 mmHg 88%
    03:00 +27°C° 0.3 mm 1 m/s 751 mmHg 89%
    04:00 +27°C° 0 mm 1 m/s 751 mmHg 89%
    05:00 +27°C° 0 mm 1 m/s 752 mmHg 89%
    06:00 +27°C° 0 mm 1 m/s 752 mmHg 90%
    07:00 +29°C° 0 mm 1 m/s 752 mmHg 84%
    08:00 +30°C° 0 mm 1 m/s 753 mmHg 78%
    09:00 +32°C° 0 mm 1 m/s 753 mmHg 72%
    10:00 +33°C° 0.3 mm 1 m/s 753 mmHg 69%
    11:00 +34°C° 0.3 mm 1 m/s 752 mmHg 66%
    12:00 +35°C° 0.3 mm 1 m/s 752 mmHg 63%
    13:00 +35°C° 0.6 mm 1 m/s 751 mmHg 63%
    14:00 +35°C° 0.6 mm 1 m/s 750 mmHg 63%
    15:00 +35°C° 0.6 mm 1 m/s 749 mmHg 62%
    16:00 +34°C° 0.4 mm 1 m/s 749 mmHg 66%
    17:00 +33°C° 0.4 mm 1 m/s 749 mmHg 69%
    18:00 +30°C° 0.4 mm 0 m/s 750 mmHg 72%
    19:00 +29°C° 0.6 mm 0 m/s 750 mmHg 73%
    20:00 +31°C° 0.6 mm 1 m/s 751 mmHg 75%
    21:00 +30°C° 0.6 mm 1 m/s 752 mmHg 76%
    22:00 +30°C° 0.4 mm 1 m/s 752 mmHg 77%
    23:00 +30°C° 0.4 mm 1 m/s 752 mmHg 79%

    Depois de amanhã, 22 Setembro, Sábado

    Tempo Temperatura Precipitação Vento Pressão Humidade
    00:00 +29°C° 0.4 mm 1 m/s 751 mmHg 80%
    01:00 +29°C° 0.4 mm 1 m/s 751 mmHg 81%
    02:00 +29°C° 0.4 mm 1 m/s 751 mmHg 82%
    03:00 +28°C° 0.4 mm 1 m/s 751 mmHg 83%
    04:00 +28°C° 0.3 mm 1 m/s 751 mmHg 84%
    05:00 +28°C° 0.3 mm 1 m/s 751 mmHg 85%
    06:00 +28°C° 0.3 mm 1 m/s 752 mmHg 86%
    07:00 +30°C° 0.1 mm 1 m/s 752 mmHg 80%
    08:00 +31°C° 0.1 mm 1 m/s 752 mmHg 74%
    09:00 +33°C° 0.1 mm 1 m/s 753 mmHg 69%
    10:00 +34°C° 0.3 mm 1 m/s 752 mmHg 66%
    11:00 +35°C° 0.3 mm 1 m/s 752 mmHg 63%
    12:00 +36°C° 0.3 mm 1 m/s 751 mmHg 60%
    13:00 +36°C° 0.5 mm 1 m/s 750 mmHg 59%
    14:00 +36°C° 0.5 mm 1 m/s 749 mmHg 59%
    15:00 +36°C° 0.5 mm 1 m/s 748 mmHg 58%
    16:00 +35°C° 0.2 mm 1 m/s 748 mmHg 61%
    17:00 +34°C° 0.2 mm 1 m/s 749 mmHg 65%
    18:00 +32°C° 0.2 mm 1 m/s 749 mmHg 68%
    19:00 +32°C° 0.4 mm 1 m/s 750 mmHg 70%
    20:00 +31°C° 0.4 mm 1 m/s 750 mmHg 72%
    21:00 +31°C° 0.4 mm 1 m/s 751 mmHg 74%
    22:00 +30°C° 0.1 mm 1 m/s 751 mmHg 75%
    23:00 +30°C° 0.1 mm 1 m/s 751 mmHg 76%

    23 Setembro, Domingo

    Tempo Temperatura Precipitação Vento Pressão Humidade
    00:00 +30°C° 0.1 mm 1 m/s 751 mmHg 77%
    01:00 +29°C° 0.4 mm 1 m/s 751 mmHg 78%
    02:00 +29°C° 0.4 mm 1 m/s 750 mmHg 79%
    03:00 +29°C° 0.4 mm 1 m/s 750 mmHg 80%
    04:00 +29°C° 0.5 mm 1 m/s 751 mmHg 81%
    05:00 +29°C° 0.5 mm 1 m/s 751 mmHg 82%
    06:00 +28°C° 0.5 mm 2 m/s 751 mmHg 84%
    07:00 +30°C° 0.3 mm 2 m/s 752 mmHg 78%
    08:00 +32°C° 0.3 mm 2 m/s 752 mmHg 73%
    09:00 +35°C° 0.3 mm 2 m/s 752 mmHg 68%
    10:00 +36°C° 0.5 mm 2 m/s 752 mmHg 65%
    11:00 +36°C° 0.5 mm 2 m/s 751 mmHg 63%
    12:00 +37°C° 0.5 mm 2 m/s 750 mmHg 60%
    13:00 +36°C° 0.5 mm 1 m/s 750 mmHg 60%
    14:00 +36°C° 0.5 mm 1 m/s 749 mmHg 59%
    15:00 +36°C° 0.5 mm 1 m/s 748 mmHg 58%
    16:00 +35°C° 0.4 mm 1 m/s 748 mmHg 62%
    17:00 +34°C° 0.4 mm 1 m/s 749 mmHg 65%
    18:00 +33°C° 0.4 mm 1 m/s 749 mmHg 68%
    19:00 +32°C° 0.4 mm 1 m/s 750 mmHg 70%
    20:00 +32°C° 0.4 mm 1 m/s 750 mmHg 72%
    21:00 +31°C° 0.4 mm 2 m/s 751 mmHg 73%
    22:00 +31°C° 0.2 mm 2 m/s 751 mmHg 75%
    23:00 +30°C° 0.2 mm 2 m/s 750 mmHg 77%

    24 Setembro, Segunda-feira

    Tempo Temperatura Precipitação Vento Pressão Humidade
    00:00 +30°C° 0.2 mm 2 m/s 750 mmHg 78%
    01:00 +30°C° 0.5 mm 2 m/s 750 mmHg 80%
    02:00 +29°C° 0.5 mm 2 m/s 750 mmHg 81%
    03:00 +29°C° 0.5 mm 2 m/s 750 mmHg 82%
    04:00 +29°C° 0.3 mm 2 m/s 750 mmHg 83%
    05:00 +29°C° 0.3 mm 2 m/s 750 mmHg 85%
    06:00 +28°C° 0.3 mm 2 m/s 751 mmHg 86%
    07:00 +30°C° 0.3 mm 2 m/s 751 mmHg 81%
    08:00 +31°C° 0.3 mm 3 m/s 751 mmHg 77%
    09:00 +34°C° 0.3 mm 3 m/s 752 mmHg 73%
    10:00 +34°C° 0.4 mm 3 m/s 751 mmHg 69%
    11:00 +35°C° 0.4 mm 3 m/s 751 mmHg 66%
    12:00 +36°C° 0.4 mm 3 m/s 750 mmHg 62%
    13:00 +36°C° 0.3 mm 3 m/s 749 mmHg 62%
    14:00 +36°C° 0.3 mm 3 m/s 749 mmHg 61%
    15:00 +36°C° 0.3 mm 3 m/s 748 mmHg 60%
    16:00 +35°C° 0.1 mm 2 m/s 748 mmHg 64%
    17:00 +34°C° 0.1 mm 2 m/s 748 mmHg 68%
    18:00 +32°C° 0.1 mm 2 m/s 749 mmHg 72%
    19:00 +31°C° 0.2 mm 2 m/s 749 mmHg 74%
    20:00 +31°C° 0.2 mm 3 m/s 750 mmHg 76%
    21:00 +30°C° 0.2 mm 3 m/s 750 mmHg 77%
    22:00 +30°C° 0.3 mm 3 m/s 750 mmHg 79%
    23:00 +29°C° 0.3 mm 3 m/s 750 mmHg 81%

    25 Setembro, Terça-feira

    Tempo Temperatura Precipitação Vento Pressão Humidade
    00:00 +29°C° 0.3 mm 3 m/s 750 mmHg 83%
    01:00 +29°C° 0.1 mm 2 m/s 750 mmHg 84%
    02:00 +29°C° 0.1 mm 2 m/s 749 mmHg 85%
    03:00 +28°C° 0.1 mm 2 m/s 749 mmHg 86%
    04:00 +28°C° 0 mm 2 m/s 749 mmHg 86%
    05:00 +28°C° 0 mm 2 m/s 750 mmHg 86%
    06:00 +28°C° 0 mm 2 m/s 750 mmHg 87%
    07:00 +29°C° 0 mm 2 m/s 751 mmHg 82%
    08:00 +30°C° 0 mm 3 m/s 751 mmHg 76%
    09:00 +33°C° 0 mm 3 m/s 751 mmHg 71%
    10:00 +34°C° 0.1 mm 3 m/s 751 mmHg 68%
    11:00 +34°C° 0.1 mm 3 m/s 750 mmHg 65%
    12:00 +35°C° 0.1 mm 3 m/s 750 mmHg 63%
    13:00 +35°C° 0.1 mm 3 m/s 749 mmHg 63%
    14:00 +35°C° 0.1 mm 2 m/s 748 mmHg 63%
    15:00 +35°C° 0.1 mm 2 m/s 747 mmHg 63%
    16:00 +34°C° 0 mm 2 m/s 747 mmHg 66%
    17:00 +32°C° 0 mm 2 m/s 748 mmHg 70%
    18:00 +31°C° 0 mm 2 m/s 748 mmHg 73%
    19:00 +31°C° 0.2 mm 2 m/s 748 mmHg 75%
    20:00 +30°C° 0.2 mm 2 m/s 749 mmHg 77%
    21:00 +30°C° 0.2 mm 3 m/s 749 mmHg 79%
    22:00 +29°C° 0.6 mm 3 m/s 749 mmHg 81%
    23:00 +29°C° 0.6 mm 3 m/s 749 mmHg 83%
    Mostrar mais